Flag for Brazil Weather past 2 weeks in Florianópolis, Santa Catarina, Brazil

Now
73 °F

Passing clouds.


Feels Like: 70 °F
Forecast: 73 / 82 °F
Wind: No wind

Location: Florianopolis Aeroporto

Current Time: Mar 6, 2015 at 6:17:50 AM

Latest Report: Mar 6, 2015 at 5:00 AM


Visibility: N/A

Pressure: 29.86 "Hg

Humidity: 94%

Dew point: 72 °F

Location of FlorianópolisLocation

Historic Weather in Florianópolis — Graph

°F

Florianópolis temperature yesterday

Maximum temperature yesterday: 86 °F (at 2:00 PM)
Minimum temperature yesterday: 77 °F (at 5:00 AM)
Average temperature yesterday: 81 °F

Past Weeks' High & Low Weather Summary

 TemperatureHumidityPressure
High91 °F (Feb 25, 2:00 PM)100% (Mar 4, 11:00 PM)30.15 "Hg (Mar 4, 11:00 PM)
Low68 °F (Mar 1, 5:00 AM)41% (Feb 25, 2:00 PM)29.65 "Hg (Feb 19, 4:00 PM)
Average79 °F75%29.96 "Hg
* Reported Feb 19 6:00 AM — Mar 6 5:00 AM, Florianópolis, Weather by CustomWeather, © 2015

Note: Actual official high and low records may vary slightly from our data, if they occured in-between our weather recording intervals... More about our weather records

Advertising

Florianópolis weather history for previous 24 hours

 ConditionsComfort  
Time TempWeatherWind HumidityBarometerVisibility
5:00 AM
Fri, Mar 6
73 °FPassing clouds.No wind94%29.86 "HgN/A
4:00 AM75 °FPartly cloudy.No wind89%29.86 "HgN/A
3:00 AM75 °FPassing clouds.2 mph89%29.86 "HgN/A
1:00 AM75 °FPartly cloudy.No wind94%29.89 "HgN/A
12:00 AM75 °FPassing clouds.No wind89%29.92 "HgN/A
11:00 PM
Thu, Mar 5
77 °FRain. Passing clouds.5 mph89%29.92 "Hg5 mi
10:00 PM77 °FRain. Passing clouds.3 mph89%N/A5 mi
9:00 PM79 °FThunderstorms. Passing clouds.2 mph89%N/A3 mi
8:00 PM79 °FThunderstorms. Partly cloudy.3 mph89%29.89 "Hg5 mi
7:00 PM81 °FLight rain. Passing clouds.5 mph84%29.83 "HgN/A
6:00 PM82 °FPassing clouds.5 mph74%29.83 "HgN/A
5:00 PM84 °FPassing clouds.7 mph74%29.83 "HgN/A
4:00 PM86 °FPassing clouds.6 mph66%29.80 "HgN/A
3:00 PM86 °FPassing clouds.8 mph66%29.83 "HgN/A
2:00 PM86 °FPartly sunny.9 mph66%29.86 "HgN/A
1:00 PM84 °FPartly sunny.9 mph66%29.89 "HgN/A
12:00 PM84 °FPartly sunny.12 mph66%29.89 "HgN/A
9:00 AM81 °FScattered clouds.12 mph79%29.92 "HgN/A
8:00 AM81 °FScattered clouds.14 mph79%29.92 "HgN/A
7:00 AM79 °FScattered clouds.12 mph84%29.89 "HgN/A
6:00 AM79 °FPassing clouds.7 mph84%29.92 "HgN/A
Weather by CustomWeather, © 2015

See weather overviewHow to use our weather pages